Satellite: NOAA-18
Catalog number: 28654
Epoch time:      08073.40436283
Element set:     350
Inclination:      098.8604 deg
RA of node:       015.5540 deg
Eccentricity:    0.0013532
Arg of perigee:   222.8005 deg
Mean anomaly:     137.2127 deg
Mean motion:   14.11143785 rev/day
Decay rate:       1.72e-06 rev/day^2
Epoch rev:           14496
Checksum:              280

/EX
SB KEPS @ AMSAT  $ORB08073.M
Orbital Elements  08073.MISC

HR AMSAT ORBITAL ELEMENTS FOR MANNED AND MISCELLANEOUS SATELLITES
FROM WA5QGD FORT WORTH,TX March 13, 2008
Send Subscribe/unsubscribe to KEPS at 
http://www.amsat.org/mailman/listinfo/keps
BID: ORB08073.M
TO ALL RADIO AMATEURS BT

Satellite: HUBBLE
Catalog number: 20580
Epoch time:      08073.75534345
Element set:      92
Inclination:      028.4679 deg
RA of node:       225.6413 deg
Eccentricity:    0.0003876
Arg of perigee:   092.4138 deg
Mean anomaly:     267.6893 deg
Mean motion:   15.00348907 rev/day
Decay rate:       4.18e-06 rev/day^2
Epoch rev:           78063
Checksum:              314

Satellite: UARS
Catalog number: 21701
Epoch time:      08073.79845842
Element set:     313
Inclination:      056.9727 deg
RA of node:       217.3672 deg
Eccentricity:    0.0085274
Arg of perigee:   000.3391 deg
Mean anomaly:     359.7707 deg
Mean motion:   15.50862167 rev/day
Decay rate:      5.850e-05 rev/day^2
Epoch rev:           90769
Checksum:              325

Satellite: PO-34
Catalog number: 25520
Epoch time:      08071.44677032
Element set:    0954
Inclination:      028.4589 deg
RA of node:       113.1202 deg
Eccentricity:    0.0005323
Arg of perigee:   296.4874 deg
Mean anomaly:     063.5173 deg
Mean motion:   15.17147624 rev/day
Decay rate:       5.85e-06 rev/day^2
Epoch rev:           51830
Checksum:              295

Satellite: ISS
Catalog number: 25544
Epoch time:      08073.77889163
Element set:     107
Inclination:      051.6371 deg
RA of node:       148.2068 deg
Eccentricity:    0.0001310
Arg of perigee:   244.5695 deg
Mean anomaly:     215.1945 deg
Mean motion:   15.76395734 rev/day
Decay rate:     2.8385e-04 rev/day^2
Epoch rev:           53347
Checksum:              319

Satellite: OO-38
Catalog number: 26063
Epoch time:      08072.91871125
Element set:    0160
Inclination:      100.2029 deg
RA of node:       130.1083 deg
Eccentricity:    0.0037305
Arg of perigee:   120.6272 deg
Mean anomaly:     239.8584 deg
Mean motion:   14.35829466 rev/day
Decay rate:       -1.4e-07 rev/day^2
Epoch rev:           42575
Checksum:              281

Satellite: UWE-1
Catalog number: 28892
Epoch time:      08073.38575568
Element set:     997
Inclination:      098.1059 deg
RA of node:       329.2632 deg
Eccentricity:    0.0017601
Arg of perigee:   352.3999 deg
Mean anomaly:     007.6903 deg
Mean motion:   14.59601567 rev/day
Decay rate:        4.0e-08 rev/day^2
Epoch rev:           12662
Checksum:              336

Satellite: CO-58
Catalog number: 28895
Epoch time:      08072.25954798
Element set:    0970
Inclination:      098.1098 deg
RA of node:       328.4814 deg
Eccentricity:    0.0018138
Arg of perigee:   355.9399 deg
Mean anomaly:     004.1618 deg
Mean motion:   14.59643379 rev/day
Decay rate:        6.4e-07 rev/day^2
Epoch rev:           12634
Checksum:              364

Satellite: NCUBE2
Catalog number: 28897
Epoch time:      08073.67472598
Element set:     501
Inclination:      098.1071 deg
RA of node:       329.8009 deg
Eccentricity:    0.0017536
Arg of perigee:   352.9817 deg
Mean anomaly:     007.1132 deg
Mean motion:   14.59812637 rev/day
Decay rate:       1.29e-06 rev/day^2
Epoch rev:           11883
Checksum:              324

Satellite: FCAL
Catalog number: 29667
Epoch time:      08073.49255770
Element set:     824
Inclination:      051.6298 deg
RA of node:       103.2531 deg
Eccentricity:    0.0008508
Arg of perigee:   348.4409 deg
Mean anomaly:     011.6407 deg
Mean motion:   16.05146837 rev/day
Decay rate:     7.5655e-04 rev/day^2
Epoch rev:            7113
Checksum:              307

Satellite: FALCON
Catalog number: 30776
Epoch time:      08073.91628690
Element set:     267
Inclination:      035.4343 deg
RA of node:       011.2597 deg
Eccentricity:    0.0001820
Arg of perigee:   281.1665 deg
Mean anomaly:     078.8849 deg
Mean motion:   15.02910182 rev/day
Decay rate:       6.29e-06 rev/day^2
Epoch rev:            5580
Checksum:              301

Satellite: MAST
Catalog number: 31126
Epoch time:      08072.17090569
Element set:    0278
Inclination:      098.0481 deg
RA of node:       140.4408 deg
Eccentricity:    0.0093638
Arg of perigee:   272.5707 deg
Mean anomaly:     086.4788 deg
Mean motion:   14.53405254 rev/day
Decay rate:       1.35e-06 rev/day^2
Epoch rev:           04792
Checksum:              308

Satellite: CAPE1
Catalog number: 31130
Epoch time:      08072.71317140
Element set:    0260
Inclination:      098.0506 deg
RA of node:       140.1930 deg
Eccentricity:    0.0101769
Arg of perigee:   273.1192 deg
Mean anomaly:     085.8364 deg
Mean motion:   14.51939347 rev/day
Decay rate:       1.90e-06 rev/day^2
Epoch rev:           04772
Checksum:              272

/EX



_______________________________________________
Via the Keps mailing list courtesy of AMSAT-NA
http://amsat.org/mailman/listinfo/keps

--- ViaMAIL!/WC v1.60d
 * Origin: Chowdanet (401-724-4410) telnet://chowdanet.com  (1:323/120)